Presque Isle, ME

7:36 PM EDT on September 25, 2016 (GMT -0400)
Northern Maine Regional At Presque Isle

Weather History for KPQI - April, 2013

Change the Weather History Date:

Sunday, April 28, 2013

  Actual Average Record
Temperature  
Mean Temperature 46 °F -  
Max Temperature 66 °F 55 °F 82 °F (1990)
Min Temperature 26 °F 32 °F 15 °F (1947)
Degree Days  
Heating Degree Days 19    
Moisture  
Dew Point 26 °F    
Average Humidity 50    
Maximum Humidity 93    
Minimum Humidity 19    
Precipitation  
Precipitation 0.00 in - - ()
Sea Level Pressure  
Sea Level Pressure 30.21 in    
Wind  
Wind Speed 2 mph (SE)    
Max Wind Speed 9 mph    
Max Gust Speed -    
Visibility 9 miles    
Events      
Averages and records for this station are not official NWS values.
T = Trace of Precipitation, MM = Missing Value Source: NWS Daily Summary

Daily Weather History Graph

Daily Weather History Graph

Search for Another Location

Airport or City:

Trip Planner

Search our weather history database for the weather conditions in past years. The results will help you decide how hot, cold, wet, or windy it might be!

Date:

Astronomy

Apr. 28, 2013 Rise Set
Actual Time 5:21 AM EDT 7:38 PM EDT
Civil Twilight 4:48 AM EDT 8:11 PM EDT
Nautical Twilight 4:07 AM EDT 8:53 PM EDT
Astronomical Twilight 3:20 AM EDT 9:40 PM EDT
Moon 11:11 PM EDT (4/28) 7:27 AM EDT (4/28)
Length of Visible Light 15h 22m
Length of Day
14h 16m
Waning Gibbous, 89% of the Moon is Illuminated
Apr 28
Waning Gibbous
May 2
Last Quarter
May 9
New
May 18
First Quarter
May 25
Full

Hourly Weather History & Observations

Time (EDT) Temp. Windchill Dew Point Humidity Pressure Visibility Wind Dir Wind Speed Gust Speed Precip Events Conditions
12:15 AM 32.0 °F - 26.6 °F 80% 30.25 in - Calm Calm - N/A   Clear
12:35 AM 32.0 °F - 26.6 °F 80% 30.25 in - Calm Calm - N/A   Clear
12:55 AM 32.0 °F 28.7 °F 26.6 °F 80% 30.25 in - NNE 3.5 mph - N/A   Clear
1:15 AM 33.8 °F - 24.8 °F 70% 30.26 in 10.0 mi Calm Calm - N/A   Clear
1:35 AM 30.2 °F 25.4 °F 24.8 °F 80% 30.26 in - East 4.6 mph - N/A   Clear
1:55 AM 30.2 °F 26.7 °F 24.8 °F 80% 30.25 in 10.0 mi WNW 3.5 mph - N/A   Clear
2:15 AM 30.2 °F 26.7 °F 24.8 °F 80% 30.25 in 10.0 mi SW 3.5 mph - N/A   Clear
2:35 AM 28.4 °F 24.6 °F 23.0 °F 80% 30.25 in 10.0 mi SSW 3.5 mph - N/A   Clear
2:55 AM 28.4 °F - 24.8 °F 86% 30.25 in 10.0 mi Calm Calm - N/A   Clear
3:15 AM 30.2 °F - 26.6 °F 86% 30.25 in - Calm Calm - N/A   Unknown
3:35 AM 28.4 °F - 24.8 °F 86% 30.24 in - Calm Calm - N/A   Unknown
3:55 AM 28.4 °F - 24.8 °F 86% 30.25 in - Calm Calm - N/A   Unknown
4:15 AM 28.4 °F - 24.8 °F 86% 30.25 in 10.0 mi Calm Calm - N/A   Clear
4:35 AM 28.4 °F - 24.8 °F 86% 30.25 in 10.0 mi Calm Calm - N/A   Clear
4:55 AM 28.4 °F - 24.8 °F 86% 30.26 in - Calm Calm - N/A   Unknown
5:35 AM 26.6 °F - 24.8 °F 93% 30.26 in 10.0 mi Calm Calm - N/A   Clear
5:55 AM 26.6 °F - 24.8 °F 93% 30.26 in - Calm Calm - N/A   Unknown
6:15 AM 28.4 °F - 24.8 °F 86% 30.26 in - Calm Calm - N/A   Unknown
6:35 AM 30.2 °F - 26.6 °F 86% 30.27 in - Calm Calm - N/A   Unknown
6:55 AM 30.2 °F - 26.6 °F 86% 30.27 in 10.0 mi Calm Calm - N/A   Clear
7:35 AM 35.6 °F - 28.4 °F 75% 30.27 in 10.0 mi Calm Calm - N/A   Clear
7:55 AM 39.2 °F - 28.4 °F 65% 30.27 in 10.0 mi Calm Calm - N/A   Clear
8:15 AM 41.0 °F - 28.4 °F 61% 30.27 in 10.0 mi Calm Calm - N/A   Clear
8:35 AM 42.8 °F - 26.6 °F 53% 30.27 in 10.0 mi Calm Calm - N/A   Clear
8:55 AM 46.4 °F - 28.4 °F 50% 30.26 in 10.0 mi Calm Calm - N/A   Clear
9:15 AM 48.2 °F - 26.6 °F 43% 30.26 in 10.0 mi ESE 3.5 mph - N/A   Clear
9:35 AM 50.0 °F - 26.6 °F 40% 30.26 in 10.0 mi Calm Calm - N/A   Clear
9:55 AM 53.6 °F - 28.4 °F 38% 30.27 in 10.0 mi NNE 3.5 mph - N/A   Clear
10:15 AM 53.6 °F - 26.6 °F 35% 30.26 in 10.0 mi Calm Calm - N/A   Clear
10:35 AM 55.4 °F - 26.6 °F 33% 30.26 in 10.0 mi Calm Calm - N/A   Clear
10:55 AM 57.2 °F - 26.6 °F 31% 30.25 in 10.0 mi Calm Calm - N/A   Clear
11:35 AM 60.8 °F - 26.6 °F 27% 30.24 in 10.0 mi Calm Calm - N/A   Clear
11:55 AM 62.6 °F - 24.8 °F 24% 30.23 in 10.0 mi Calm Calm - N/A   Clear
12:15 PM 62.6 °F - 24.8 °F 24% 30.23 in 8.0 mi South 3.5 mph - N/A   Clear
12:35 PM 62.6 °F - 24.8 °F 24% 30.22 in 10.0 mi NW 5.8 mph - N/A   Clear
12:55 PM 62.6 °F - 24.8 °F 24% 30.21 in 5.0 mi SE 3.5 mph - N/A   Clear
1:15 PM 62.6 °F - 26.6 °F 26% 30.20 in 6.0 mi WNW 3.5 mph - N/A   Clear
1:35 PM 64.4 °F - 24.8 °F 22% 30.20 in 5.0 mi East 4.6 mph - N/A   Clear
2:15 PM 66.2 °F - 24.8 °F 21% 30.19 in 5.0 mi Calm Calm - N/A   Clear
2:35 PM 64.4 °F - 24.8 °F 22% 30.18 in 4.0 mi South 6.9 mph - N/A   Clear
2:55 PM 64.4 °F - 24.8 °F 22% 30.18 in 5.0 mi SE 4.6 mph - N/A   Clear
3:15 PM 66.2 °F - 24.8 °F 21% 30.17 in 9.0 mi NW 4.6 mph - N/A   Clear
3:35 PM 66.2 °F - 24.8 °F 21% 30.16 in 7.0 mi WSW 3.5 mph - N/A   Clear
3:55 PM 66.2 °F - 24.8 °F 21% 30.15 in 10.0 mi SSW 5.8 mph - N/A   Clear
4:15 PM 66.2 °F - 24.8 °F 21% 30.15 in 5.0 mi Calm Calm - N/A   Clear
4:35 PM 66.2 °F - 23.0 °F 19% 30.15 in 6.0 mi WSW 9.2 mph - N/A   Clear
4:55 PM 66.2 °F - 24.8 °F 21% 30.15 in 9.0 mi West 8.1 mph - N/A   Clear
5:15 PM 66.2 °F - 24.8 °F 21% 30.14 in 10.0 mi NE 3.5 mph - N/A   Clear
5:35 PM 66.2 °F - 24.8 °F 21% 30.13 in 10.0 mi ENE 4.6 mph - N/A   Clear
5:55 PM 66.2 °F - 24.8 °F 21% 30.13 in 10.0 mi ENE 6.9 mph - N/A   Clear
6:15 PM 66.2 °F - 26.6 °F 23% 30.13 in 10.0 mi ENE 8.1 mph - N/A   Clear
6:35 PM 64.4 °F - 26.6 °F 24% 30.13 in 10.0 mi ESE 4.6 mph - N/A   Clear
6:55 PM 64.4 °F - 26.6 °F 24% 30.13 in 10.0 mi ESE 8.1 mph - N/A   Clear
7:15 PM 62.6 °F - 26.6 °F 26% 30.13 in 10.0 mi SE 6.9 mph - N/A   Clear
7:35 PM 60.8 °F - 26.6 °F 27% 30.13 in 10.0 mi ESE 4.6 mph - N/A   Clear
7:55 PM 60.8 °F - 26.6 °F 27% 30.13 in 10.0 mi ESE 4.6 mph - N/A   Clear
8:15 PM 55.4 °F - 26.6 °F 33% 30.14 in 10.0 mi Calm Calm - N/A   Clear
8:35 PM 55.4 °F - 26.6 °F 33% 30.14 in 10.0 mi Calm Calm - N/A   Clear
8:55 PM 51.8 °F - 26.6 °F 38% 30.15 in 10.0 mi Calm Calm - N/A   Clear
9:15 PM 51.8 °F - 28.4 °F 41% 30.15 in 10.0 mi Calm Calm - N/A   Clear
9:35 PM 50.0 °F - 28.4 °F 43% 30.15 in 10.0 mi Calm Calm - N/A   Clear
9:55 PM 44.6 °F - 30.2 °F 57% 30.15 in 10.0 mi Calm Calm - N/A   Clear
10:15 PM 44.6 °F - 30.2 °F 57% 30.15 in 10.0 mi Calm Calm - N/A   Clear
10:35 PM 42.8 °F - 28.4 °F 57% 30.15 in 10.0 mi Calm Calm - N/A   Clear
10:55 PM 41.0 °F - 30.2 °F 65% 30.15 in 10.0 mi Calm Calm - N/A   Clear
11:15 PM 41.0 °F - 30.2 °F 65% 30.15 in 10.0 mi Calm Calm - N/A   Clear
11:35 PM 37.4 °F 34.9 °F 30.2 °F 75% 30.16 in 10.0 mi South 3.5 mph - N/A   Clear